Cloud_Cover
8 53 64 100 98 69 44 17 0 15 54 92 30 56 7 0 0 37 5 38 44 96 46 83 100 81 87 100 100 100 75 86 100 100 100 51 80 100 94 99 100 100 100 100 100 100 100 94 100
6 6 5 100 69 100 17 32 95 16 93 83 75 19 72 0 0 4 43 81 99 62 100 100 49 100 63 50 100 100 99 85 99 89 100 100 30 100 100 100 100 100 100 100 100 67 100 98 96
65 5 8 100 59 100 69 36 78 92 27 91 100 17 12 0 0 19 71 94 86 100 100 6 4 100 100 99 100 100 100 99 20 52 75 100 96 81 100 100 100 100 100 100 100 100 100 100 97
100 26 5 92 36 50 63 94 95 67 6 74 100 9 0 6 0 2 77 100 100 100 61 5 5 5 100 100 100 100 100 100 84 99 99 100 100 100 100 100 100 100 100 100 100 100 61 34 99
100 94 28 81 72 47 78 99 95 41 9 100 100 66 4 2 0 0 41 100 100 98 57 32 38 44 99 31 23 97 100 98 100 100 100 100 100 100 100 98 100 100 100 100 84 12 21 100 100
100 94 51 100 89 73 90 98 92 82 64 100 65 67 18 1 0 0 10 68 100 82 48 91 81 73 100 100 100 100 100 100 100 100 100 100 100 100 100 100 72 100 100 100 100 50 100 96 82
100 100 99 100 100 97 72 100 96 78 7 64 75 7 4 0 0 0 4 21 96 100 100 100 100 100 100 100 100 100 100 100 100 100 100 100 100 100 100 100 98 100 100 32 6 100 100 100 73
95 99 100 100 100 96 77 100 100 95 42 78 13 38 4 0 0 0 0 39 72 63 92 100 100 100 100 100 100 100 100 100 100 100 100 100 100 100 100 100 100 94 99 8 100 100 75 78 5
5 40 100 89 71 100 91 100 100 85 5 59 6 6 5 0 0 0 4 26 41 74 98 100 100 100 98 93 100 100 100 100 100 100 100 100 100 100 100 100 100 100 5 100 95 99 60 5 34
6 54 100 97 99 100 100 100 100 62 8 59 100 6 13 1 0 0 0 5 18 34 73 100 100 97 97 100 100 100 100 100 100 100 100 100 100 100 100 100 100 34 100 44 100 61 60 39 5
1 22 45 100 98 88 100 100 100 100 70 14 38 18 16 11 4 4 0 0 5 23 24 74 100 100 100 100 100 100 100 100 100 100 100 100 100 100 100 67 20 90 97 97 100 84 70 5 5
37 1 29 100 100 95 100 100 100 98 97 8 5 55 99 59 5 0 4 2 5 26 31 5 42 94 18 24 76 100 76 99 100 100 100 100 100 82 68 17 40 82 69 94 38 73 34 26 58
0 5 19 100 100 96 100 56 97 72 92 5 5 7 90 100 2 0 0 4 7 21 11 6 5 5 15 12 15 5 32 53 100 100 75 14 38 9 5 5 5 74 99 37 99 22 87 62 57
0 4 7 61 94 100 100 100 100 99 88 8 4 5 81 100 4 1 0 4 5 5 8 58 5 12 67 75 27 5 7 7 17 5 5 5 5 5 5 6 39 100 33 52 89 46 96 49 9
3 30 53 59 99 100 100 100 100 87 62 5 5 23 79 100 5 5 0 0 5 5 5 5 5 5 12 54 29 5 5 30 5 5 5 5 5 5 5 39 51 29 64 5 5 52 13 23 95
5 10 32 5 22 100 100 100 100 81 85 69 37 6 48 95 17 64 0 0 4 5 19 18 14 5 5 5 26 5 42 77 5 5 5 5 4 5 8 5 5 76 5 5 5 21 5 16 100
5 98 51 8 5 39 100 100 100 100 87 98 87 9 35 17 35 26 0 0 5 5 5 4 98 35 8 5 20 15 5 5 5 5 5 5 5 5 5 5 6 5 7 22 5 5 67 96 96
84 95 99 10 11 6 55 56 100 80 100 100 86 60 52 14 86 11 2 0 5 5 5 5 17 6 5 5 7 5 5 17 5 36 70 19 4 5 67 5 5 5 5 5 5 11 85 76 100
4 5 95 73 34 5 5 6 97 96 100 100 100 99 100 60 37 56 5 0 0 5 5 92 9 5 5 5 13 50 91 23 5 6 79 5 4 27 5 5 0 0 10 5 22 58 95 95 24
7 5 26 5 5 5 97 81 94 62 100 100 100 92 89 95 9 98 58 0 0 1 5 76 53 5 11 5 7 5 5 14 9 7 4 0 3 47 5 5 2 3 6 5 5 5 5 17 5
7 52 60 29 5 5 41 83 89 100 100 98 100 100 100 96 50 100 82 5 0 0 0 36 90 74 33 5 5 5 4 23 26 31 0 6 38 4 5 5 1 0 2 2 5 5 5 5 5
89 5 15 28 23 99 3 100 100 95 100 100 89 79 100 94 19 80 100 71 0 0 0 1 95 99 60 5 4 5 8 71 16 5 0 4 5 9 5 11 12 5 5 0 3 5 5 5 5
4 0 8 75 100 6 45 51 81 79 95 64 100 89 100 100 39 62 100 61 25 0 0 0 3 7 61 31 26 28 33 72 6 1 0 5 8 18 100 99 9 5 5 0 0 0 0 1 0
0 0 0 1 40 69 14 4 74 61 25 50 90 99 100 100 66 91 92 84 5 0 1 4 0 5 28 5 78 56 0 4 49 0 5 11 99 100 100 5 5 5 0 0 0 0 0 0 0
0 65 95 92 99 100 9 1 100 2 95 56 68 100 100 100 99 80 49 100 84 0 0 4 0 0 0 0 0 37 5 5 0 5 5 40 65 7 5 4 2 3 5 1 0 0 6 64 16
0 80 100 100 100 81 0 17 95 0 5 7 100 100 100 100 100 100 96 100 98 10 0 3 2 0 0 0 0 0 85 26 4 2 79 1 26 6 5 4 1 4 1 2 2 0 0 5 4
22 1 17 5 2 0 34 5 14 0 0 3 6 100 100 100 98 100 100 97 100 99 5 4 4 0 0 0 0 0 0 6 26 25 5 64 5 22 7 83 54 2 5 2 5 0 1 2 4
2 11 4 3 62 15 45 2 19 1 0 2 4 10 59 100 75 100 100 88 78 19 6 1 2 3 0 2 2 0 0 4 5 6 9 44 12 12 100 100 9 0 0 1 0 0 3 0 1
0 3 0 37 14 90 76 30 0 0 0 0 0 2 10 7 95 50 99 100 100 100 46 0 0 5 2 0 0 0 1 4 6 60 80 96 96 40 88 100 61 2 2 0 0 0 4 2 0
0 16 48 56 70 5 22 88 0 0 0 0 0 0 1 89 75 77 90 67 96 100 98 5 0 2 5 2 0 0 0 0 3 5 7 33 44 37 1 67 5 2 0 0 29 5 10 14 15